Location: Frizzleburg
(41.0764°N, 80.4548°W)
Time: 14:14:44
(UTC+00:00)

USA 215 - Visible Passes

Search period start: 18 February 2020 00:00
Search period end: 28 February 2020 00:00
Orbit: 1101 x 1107 km, 123.0° (Epoch: 06 February)

Date Brightness Start Highest point End Pass type
(mag) Time Alt. Az. Time Alt. Az. Time Alt. Az.
18 Feb 5.3 07:55:45 10° NE 07:57:36 20° NE 07:57:36 20° NE visible
18 Feb 4.4 09:39:05 10° NE 09:44:25 27° NNW 09:44:58 27° NNW visible
18 Feb 4.8 11:21:17 10° NE 11:26:01 22° N 11:30:44 10° NW visible
19 Feb 5.9 07:12:58 10° NE 07:13:11 11° NE 07:13:11 11° NE visible
19 Feb 4.4 08:56:16 10° NE 09:00:32 33° N 09:00:32 33° N visible
19 Feb 4.7 10:39:13 10° NE 10:44:02 22° N 10:47:53 13° NW visible
20 Feb 4.9 08:13:20 10° NE 08:16:06 27° NE 08:16:06 27° NE visible
20 Feb 4.4 09:56:40 10° NE 10:01:59 27° NNW 10:03:27 25° NW visible
20 Feb 4.8 11:38:52 10° NE 11:43:35 22° N 11:48:19 10° NW visible
21 Feb 5.6 07:30:33 10° NE 07:31:41 16° NE 07:31:41 16° NE visible
21 Feb 4.1 09:13:51 10° NE 09:19:03 37° NNW 09:19:03 37° NNW visible
21 Feb 4.7 10:56:47 10° NE 11:01:36 22° N 11:06:24 10° NW visible
22 Feb 4.4 08:30:55 10° NE 08:34:38 36° NNE 08:34:38 36° NNE visible
22 Feb 4.5 10:14:15 10° NE 10:19:33 27° NNW 10:21:59 22° NW visible
23 Feb 5.2 07:48:08 10° NE 07:50:14 22° NE 07:50:14 22° NE visible
23 Feb 3.9 09:31:25 10° NE 09:37:21 38° NNW 09:37:36 38° NNW visible
23 Feb 4.7 11:14:22 10° NE 11:19:11 22° N 11:24:00 10° NW visible
24 Feb 5.9 07:05:42 10° ENE 07:05:51 11° ENE 07:05:51 11° ENE visible
24 Feb 3.9 08:48:30 10° NE 08:53:12 47° NNE 08:53:12 47° NNE visible
24 Feb 4.4 10:31:50 10° NE 10:37:09 27° NNW 10:40:34 18° WNW visible
25 Feb 4.7 08:05:42 10° NE 08:08:50 31° NE 08:08:50 31° NE visible
25 Feb 3.9 09:49:00 10° NE 09:54:56 38° NNW 09:56:11 35° NW visible
25 Feb 4.7 11:31:56 10° NE 11:36:46 22° N 11:41:34 10° NW visible
26 Feb 5.6 07:23:17 10° ENE 07:24:28 16° ENE 07:24:28 16° ENE visible
26 Feb 3.5 09:06:05 10° NE 09:11:50 58° N 09:11:50 58° N visible
26 Feb 4.4 10:49:25 10° NE 10:54:43 27° NNW 10:59:11 13° WNW visible
27 Feb 4.2 08:23:17 10° NE 08:27:29 43° ENE 08:27:29 43° ENE visible
27 Feb 4.0 10:06:35 10° NE 10:12:31 38° NNW 10:14:51 29° WNW visible
